Theta_e
318 320 322 322 322 321 321 322 325 330 340 339 339 339 339 338 338 338 338 338 339 339
317 318 318 319 321 322 325 327 328 328 331 336 339 340 339 338 337 338 338 338 338 340
317 319 320 320 320 321 323 325 326 328 327 328 331 332 338 338 338 337 338 338 338 338
316 319 320 322 324 324 325 328 329 330 331 330 330 331 331 334 340 340 337 340 343 344
310 310 312 314 317 318 319 322 325 326 329 330 331 330 332 332 333 336 342 342 344 345
312 312 311 315 315 314 315 315 318 320 321 324 327 328 329 331 333 334 337 342 344 344
308 309 310 310 311 312 313 313 314 315 318 320 320 322 326 328 329 332 336 339 342 344
307 311 311 310 309 310 311 312 313 314 315 316 319 323 324 325 326 328 332 338 342 344
308 308 308 308 308 308 309 310 311 311 313 313 317 310 309 313 321 325 327 330 338 342
308 307 307 307 307 306 306 306 306 308 310 311 312 306 305 309 320 325 326 328 334 339
306 306 305 304 304 303 303 303 303 306 308 310 312 306 304 306 318 323 325 327 333 337
306 304 304 303 302 302 302 303 304 305 305 307 308 305 305 308 322 325 325 328 333 337
306 304 303 302 301 302 303 304 305 306 307 307 310 307 304 307 320 321 323 325 333 312
303 303 303 303 302 302 303 304 304 304 305 308 311 313 304 302 316 321 323 328 329 327
Wind_Speed
7 4 5 6 5 4 4 4 4 4 6 8 8 6 4 4 4 7 9 14 12 10
6 6 6 8 6 4 5 5 7 5 6 4 7 5 6 6 7 9 6 13 13 12
7 7 6 5 6 6 6 5 5 3 4 4 6 7 4 4 5 5 8 11 15 14
6 7 7 6 6 6 3 4 5 5 4 5 5 5 5 6 6 11 15 16 16 16
7 5 4 5 5 3 3 2 2 4 5 6 5 6 5 7 8 10 11 15 13 11
7 7 6 5 3 1 1 3 3 3 5 6 6 6 8 8 10 11 12 12 12 12
8 8 7 6 5 4 3 4 4 4 5 6 9 10 11 11 9 10 10 11 13 12
7 7 7 7 6 4 3 4 4 4 6 7 8 9 9 8 10 10 11 14 13 12
6 5 5 5 5 5 5 6 6 7 9 9 8 12 14 12 12 13 11 13 13 12
6 6 7 6 6 7 7 6 7 7 8 13 13 11 14 17 12 11 11 11 12 10
6 7 6 6 6 6 5 7 7 8 9 11 11 15 15 18 12 10 12 12 13 13
9 8 8 8 7 7 7 10 11 12 12 13 14 15 18 16 11 11 12 11 14 12
11 9 8 7 7 7 9 13 11 13 11 11 12 16 16 13 8 10 9 13 12 13
9 10 9 8 7 8 10 12 13 14 13 13 11 15 17 15 8 6 9 10 6 6
Wind_Direction
218 203 210 221 225 231 240 245 214 263 251 226 217 230 181 195 156 219 215 251 244 247
208 208 215 227 220 221 228 237 233 194 231 240 256 224 181 223 214 209 208 250 258 244
213 214 218 225 243 240 253 249 263 238 233 265 261 278 269 241 268 283 256 245 245 248
211 218 218 212 230 232 248 272 306 313 313 263 255 267 262 261 245 222 235 237 229 231
207 220 204 214 195 213 256 319 337 327 304 299 297 273 257 259 263 251 246 245 250 239
189 184 197 201 183 173 326 311 327 327 301 290 282 285 282 267 266 258 248 249 245 247
187 191 191 202 200 203 227 253 273 273 278 286 285 282 279 277 277 274 265 252 245 246
191 185 186 196 208 235 276 271 255 258 267 275 275 278 272 277 290 293 285 265 249 241
170 179 198 216 230 236 245 248 266 280 280 274 270 273 273 268 275 275 278 282 270 243
211 214 218 224 230 236 240 244 244 244 253 273 276 256 256 266 267 267 269 275 276 249
218 218 223 230 233 238 232 239 242 249 247 251 265 270 269 264 267 261 270 271 267 243
216 217 219 229 238 245 244 252 256 254 251 256 266 258 259 265 266 262 273 277 271 239
216 219 222 219 224 232 243 256 258 260 257 254 250 253 243 249 252 266 282 285 266 210
212 216 217 221 217 224 241 253 258 264 265 263 258 257 249 235 244 258 278 279 245 195